Home   Weather   Terrebonne   Past weeks

Flag for Canada Past Weather in Terrebonne, Quebec, Canada — Yesterday and Last 2 Weeks

Now
46 °F

Cool.


Feels Like: 44 °F
Forecast: N/A
Wind: 5 mph from South

Location: L'Assomption Airport

Current Time: Feb 23, 2017 at 6:46:08 pm

Latest Report: Feb 23, 2017 at 6:00 pm


Visibility: N/A

Pressure: 29.64 "Hg

Humidity: 92%

Dew Point: 44 °F

Location of TerrebonneLocation

Past Weather in Terrebonne — Graph

°F

Terrebonne Temperature Yesterday

Maximum temperature yesterday: 40 °F (at 2:00 pm)
Minimum temperature yesterday: 30 °F (at 12:00 am)
Average temperature yesterday: 35 °F

High & Low Weather Summary for the Past Weeks

 TemperatureHumidityPressure
High47 °F (Feb 23, 5:00 pm)100% (Feb 12, 4:00 pm)30.46 "Hg (Feb 12, 4:00 pm)
Low-3 °F (Feb 10, 1:00 am)40% (Feb 10, 12:00 pm)29.39 "Hg (Feb 18, 5:00 pm)
Average21 °F78%29.89 "Hg
* Reported Feb 8 5:00 pm — Feb 23 5:00 pm, Terrebonne, Weather by CustomWeather, © 2017

Note: Actual official high and low records may vary slightly from our data, if they occured in-between our weather recording intervals... More about our weather records

Advertising

Terrebonne Weather History for the Previous 24 Hours

Scroll right to see more
 ConditionsComfort  
Time TempWeatherWind HumidityBarometerVisibility
5:00 pm
Thu, Feb 23
47 °FCool.10 mph92%29.60 "HgN/A
4:00 pm43 °FQuite cool.3 mph94%29.57 "HgN/A
3:00 pm38 °FChilly.1 mph96%29.57 "HgN/A
2:00 pm39 °FChilly.5 mph96%29.56 "HgN/A
1:00 pm40 °FQuite cool.No wind93%29.56 "HgN/A
12:00 pm41 °FQuite cool.9 mph83%29.59 "HgN/A
11:00 am42 °FQuite cool.3 mph81%29.60 "HgN/A
10:00 am37 °FChilly.3 mph87%29.64 "HgN/A
9:00 am35 °FChilly.1 mph94%29.69 "HgN/A
8:00 am34 °FChilly.1 mph92%29.71 "HgN/A
7:00 am33 °FChilly.2 mph94%29.72 "HgN/A
6:00 am33 °FChilly.2 mph95%29.73 "HgN/A
5:00 am33 °FChilly.3 mph93%29.75 "HgN/A
4:00 am34 °FChilly.1 mph97%29.76 "HgN/A
3:00 am34 °FChilly.2 mph89%29.79 "HgN/A
2:00 am34 °FChilly.3 mph96%29.80 "HgN/A
1:00 am34 °FChilly.3 mph89%29.82 "HgN/A
12:00 am34 °FChilly.2 mph88%29.83 "HgN/A
11:00 pm
Wed, Feb 22
34 °FChilly.2 mph88%29.84 "HgN/A
10:00 pm34 °FChilly.1 mph90%29.87 "HgN/A
9:00 pm34 °FChilly.2 mph89%29.86 "HgN/A
8:00 pm36 °FChilly.3 mph82%29.88 "HgN/A
7:00 pm35 °FChilly.1 mph94%29.88 "HgN/A
6:00 pm36 °FChilly.2 mph88%29.88 "HgN/A
Weather by CustomWeather, © 2017

See weather overviewHow to use our weather pages